Tracking 30415 objects as of 14-May-2025
HD Live streaming from Space Station
objects crossing your sky now

STARLINK-6311

Track STARLINK-6311 now!
10-day predictions
STARLINK-6311 is classified as:


NORAD ID: 56537
Int'l Code: 2023-065AL
Perigee: 565.6 km
Apogee: 566.9 km
Inclination: 43.0 °
Period: 95.8 minutes
Semi major axis: 6937 km
RCS: Unknown
Launch date: May 14, 2023
Source: United States (US)
Launch site: AIR FORCE EASTERN TEST RANGE (AFETR)
Your satellite tracking list
Your tracking list is empty




NASA's NSSDC Master Catalog

Two Line Element Set (TLE):
1 56537U 23065AL  25133.94348996 -.00000588  00000-0 -28496-4 0  9994
2 56537  43.0041  52.2172 0000945 269.7341  90.3393 15.02535269110602
Source of the keplerian elements: AFSPC